Location: Indian Hills
(32.9760°N, 85.9450°W)
Time: 19:39:43
(UTC+00:00)

Geosat - Pass Details

Date: 09 December 2019
Orbit: 763 x 766 km, 108.0° (Epoch: 25 January)

Event Time Altitude Azimuth Distance (km) Brightness Sun altitude
Rises 11:20:44 0° 160° (SSE) 3,210 7.8 -15.2°
Reaches altitude 10° 11:23:00 10° 163° (SSE) 2,288 6.9 -14.8°
Maximum altitude 11:27:58 71° 247° (WSW) 808 3.9 -13.8°
Drops below altitude 10° 11:32:59 10° 331° (NNW) 2,303 6.0 -12.8°
Enters shadow 11:33:17 - 332° (NNW) 2,428 6.2 -12.7°
